Regional Weather Roundup
Issued by NWS

Home | Current Version | Previous Version | Graphics & Text | Print | Product List | Glossary On
Versions: 1 2 3 4 5 6 7 8 9 10 11 12 13 14 15 16 17 18 19 20 21 22 23 24 25 26 27 28 29 30 31 32 33 34 35 36 37 38 39 40 41 42 43 44 45 46 47 48 49 50
000
ASUS45 KSLC 201310
RWRUT

UTAH REGIONAL WEATHER ROUNDUP
NATIONAL WEATHER SERVICE SALT LAKE CITY UT
600 AM MST MON FEB 20 2017

UTZ001>011-023>025-201400-

NORTHERN UTAH

CITY           SKY/WX    TMP DP  RH WIND       PRES   REMARKS
BRIGHAM CITY     N/A     46  35  67 SW14      29.97R
HILL AFB       CLOUDY    43  34  70 S20       29.96S
LOGAN          MOCLDY    37  32  82 W12       29.95S WCI  29
OGDEN          MOCLDY    43  35  73 S16G22    29.96R
SALT LAKE CITY PTCLDY    45  35  68 S18G28    29.97R
TOOELE VALLEY  MOCLDY    46  34  61 S23G30    29.97R
WENDOVER       MOCLDY    37  30  75 NE12      29.94R WCI  30
HEBER CITY     MOCLDY    28  28 100 E5        30.02R WCI  23
WEST JORDAN    MOCLDY    46  42  87 S22G30    30.00R

$$

UTZ011>015-024>027-201400-

CENTRAL/NORTHEAST UTAH

CITY           SKY/WX    TMP DP  RH WIND       PRES   REMARKS
PROVO AIRPORT  CLOUDY    40  34  79 SE9       30.06R WCI  34
MOAB/CANYONLAN MOCLDY    34  34 100 CALM      30.08R
DELTA          PTCLDY    37  32  81 S12       30.05R WCI  30
PRICE          FOG       34  34 100 CALM      30.09R VSB 1/4
RICHFIELD      CLEAR     34  28  80 CALM      30.10R
ROOSEVELT      PTCLDY    32  28  86 CALM      30.10S
VERNAL         CLOUDY    32  28  85 NW3       30.08R

$$

UTZ013>016-019>022-027-201400-

SOUTHERN UTAH

CITY           SKY/WX    TMP DP  RH WIND       PRES   REMARKS
BRYCE CANYON   CLEAR     19  16  88 CALM      30.13R
CEDAR CITY     CLOUDY    39  35  86 S10       30.09R WCI  32
MILFORD        PTCLDY    41  34  76 SW16      30.06R
ST GEORGE      CLOUDY    47  43  86 CALM      30.12R
HANKSVILLE     CLOUDY    28  28 100 CALM      30.12R VSB 1/2
KANAB          CLOUDY    39  39 100 W1        30.18R
BLANDING       CLEAR     31  30  96 NE8       30.19S WCI  24

$$

REGIONAL REPORTS     COLORADO/ARIZONA

CITY           SKY/WX    TMP DP  RH WIND       PRES   REMARKS
CRAIG, CO      CLOUDY    24  21  88 SE3       30.09R FOG
GRAND JUNCTION CLOUDY    38  38 100 SE7       30.10R WCI  33
RIFLE, CO      CLOUDY    36  33  89 CALM      30.12R
MONTROSE, CO   MOCLDY    30  29  96 S3        30.15R
CORTEZ, CO     CLEAR     31  30  96 E8        30.14R WCI  23
COLORADO CITY  CLOUDY    41  41 100 CALM      30.17R
PAGE, AZ       PTCLDY    39  31  72 CALM      30.11F
GRAND CANYON   CLOUDY    34  34 100 S6        30.17S WCI  29
KINGMAN, AZ    CLOUDY    43  38  82 SE6       30.15S
FLAGSTAFF, AZ  CLOUDY    33  29  85 W7G16     30.18R WCI  27

$$

REGIONAL REPORTS    NEVADA/IDAHO/WYOMING

CITY           SKY/WX    TMP DP  RH WIND       PRES   REMARKS
LAS VEGAS, NV  CLOUDY    55  45  68 S7        30.05S
ELY, NY        MOCLDY    36  30  79 S12       30.02S WCI  28
ELKO, NV       MOCLDY    41  32  70 W15       29.88R
POCATELLO, ID  MOCLDY    38  32  79 CALM      29.89F
BURLEY, ID     CLOUDY    44  33  65 S21G30    29.85R
FORT BRIDGER,    N/A     30  20  66 CALM      30.01S
EVANSTON, WY   CLOUDY    28  23  81 S7        29.98S WCI  21
ROCK SPRINGS,  CLEAR     30  23  75 SW8       29.99S WCI  22

$$



USA.gov is the U.S. government's official web portal to all federal, state and local government web resources and services.